Onweer radar Meer informatie blitzortung!


Regen radar Meer informatie rain snow radar


Bezoek onze andere website:

Template documentation
and downloads

And another site



15 daagse weersverwachting Halden (NO)

  • Overzicht
  • Per uur
  • 15 dagen
  • Extra
  • Vergelijk
  • Kaarten
  • Dagkaart
  • Meer »
  • Info
  • Statistieken
  • Directe link
    Temp 6h Neerslag Wind  
 05:05     21:38    Daglengte: 16:33 Morgen
02:00
14°
 
3
08:00
16°
 
3
14:00
18°
2.0 mm
3
20:00
16°
7.2 mm
3
 05:07     21:36    Daglengte: 16:29 Maandag 02 Aug
02:00
13°
 
3
08:00
12°
2.0 mm
4
14:00
17°
 
3
20:00
17°
 
2
 05:09     21:34    Daglengte: 16:25 Dinsdag 03 Aug
02:00
13°
 
1
08:00
14°
 
1
14:00
20°
6.3 mm
1
20:00
17°
2.1 mm
2
Locatie info
Region: Østfold
Latitude: 59.1215°N
Longitude: 11.3845°E
15 masl
Postcode: 1771
Temp/Neerslag /Baro Onweer/Dauwpunt
    Temp Baro 1h Neerslag Dauwpunt Wind UV Bewolking  
 05:03     21:41    Daglengte: 16:38 Vandaag
23:00
15°
994.1 hPa   13.3°
3
Windvlaag: 7.6 m/s
40%
 05:05     21:38    Daglengte: 16:33 Morgen
00:00
15°
993.8 hPa   13.0°
3
Windvlaag: 7.4 m/s
50%
01:00
14°
993.7 hPa   12.9°
3
Windvlaag: 7.5 m/s
31%
02:00
14°
993.4 hPa   13.0°
3
Windvlaag: 7.1 m/s
80%
03:00
14°
993.1 hPa   13.0°
3
Windvlaag: 6 m/s
65%
04:00
14°
993.0 hPa   12.9°
3
Windvlaag: 4.7 m/s
75%
05:00
14°
993.0 hPa
20%
13.0°
3
Windvlaag: 2.5 m/s
55%
06:00
14°
993.2 hPa
33%
12.8°
3
Windvlaag: 1.2 m/s
62%
07:00
15°
993.5 hPa
39%
12.8°
3
Windvlaag: 0.3 m/s
85%
08:00
16°
993.7 hPa
76%
12.3°
3
Windvlaag: -0 m/s
62%
09:00
17°
994.4 hPa
80%
11.4°
3
Windvlaag: 0.3 m/s
69%
10:00
18°
994.7 hPa
82%
11.1°
3
Windvlaag: 0.2 m/s
78%
11:00
18°
995.4 hPa
82%
10.7°
3
Windvlaag: 0.9 m/s
79%
12:00
18°
995.8 hPa
82%
10.4°
3
Windvlaag: 0.5 m/s
56%
13:00
18°
996.4 hPa 1.1 mm
82%
9.7°
3
Windvlaag: 3.6 m/s
62%
14:00
18°
997.0 hPa 0.9 mm
82%
10.2°
3
Windvlaag: 5 m/s
37%
15:00
18°
997.6 hPa 0.9 mm
79%
11.7°
3
Windvlaag: 4.3 m/s
55%
16:00
18°
998.0 hPa 1.1 mm
78%
11.7°
2
Windvlaag: 4.3 m/s
72%
17:00
17°
998.1 hPa 1.5 mm
73%
11.6°
2
Windvlaag: 1.9 m/s
69%
18:00
17°
998.3 hPa 1.4 mm
72%
10.7°
2
Windvlaag: -1.3 m/s
70%
19:00
17°
998.6 hPa 1.1 mm
75%
9.7°
3
Windvlaag: -3.9 m/s
55%
20:00
16°
998.9 hPa 1.1 mm
77%
9.1°
3
Windvlaag: -5.7 m/s
17%
21:00
15°
999.4 hPa
36%
11.9°
3
Windvlaag: -5.8 m/s
49%
22:00
14°
1000.0 hPa
27%
12.7°
3
Windvlaag: -4.9 m/s
17%
23:00
14°
1000.3 hPa
34%
13.1°
3
Windvlaag: -5.1 m/s
56%
 05:07     21:36    Daglengte: 16:29 Maandag 02 Aug
00:00
14°
1000.7 hPa
65%
13.2°
3
Windvlaag: -4.9 m/s
63%
01:00
13°
1000.8 hPa
26%
13.1°
3
Windvlaag: -4.8 m/s
73%
02:00
13°
1000.9 hPa
71%
12.9°
3
Windvlaag: -5.4 m/s
77%
03:00
13°
1001.1 hPa
75%
12.6°
3
Windvlaag: -6.2 m/s
82%
04:00
13°
1001.4 hPa 0.8 mm
78%
12.5°
4
Windvlaag: -5.8 m/s
79%
05:00
13°
1001.7 hPa 1.2 mm
82%
11.9°
4
Windvlaag: -5.9 m/s
80%
06:00
12°
1002.2 hPa
82%
11.6°
4
Windvlaag: -5.7 m/s
62%
07:00
12°
1002.7 hPa
59%
11.0°
4
Windvlaag: -4.6 m/s
17%
08:00
12°
1003.2 hPa
14%
11.1°
4
Windvlaag: -4 m/s
13%
09:00
13°
1003.6 hPa
14%
11.8°
4
Windvlaag: -4.6 m/s
9%
10:00
14°
1004.1 hPa
14%
12.6°
4
Windvlaag: -4.3 m/s
9%
11:00
15°
1004.4 hPa
14%
13.0°
3
Windvlaag: -3.7 m/s
9%
12:00
16°
1004.7 hPa
14%
13.4°
3
Windvlaag: -3.8 m/s
12%
13:00
16°
1004.8 hPa
14%
12.2°
3
Windvlaag: -3.9 m/s
12%
14:00
17°
1004.8 hPa
14%
8.6°
3
Windvlaag: -4 m/s
21%
15:00
18°
1004.8 hPa
14%
7.1°
3
Windvlaag: -3.8 m/s
9%
16:00
18°
1004.9 hPa
14%
5.0°
3
Windvlaag: -3.3 m/s
23%
17:00
18°
1005.1 hPa
21%
5.9°
3
Windvlaag: -2.9 m/s
55%
18:00
18°
1005.3 hPa
21%
4.8°
3
Windvlaag: -2.6 m/s
16%
19:00
18°
1005.5 hPa
21%
4.9°
2
Windvlaag: -2.4 m/s
19%
20:00
17°
1005.7 hPa
21%
7.3°
2
Windvlaag: -2.2 m/s
14%
21:00
16°
1006.1 hPa
21%
8.1°
2
Windvlaag: -1.1 m/s
41%
22:00
15°
1006.6 hPa
33%
10.1°
2
Windvlaag: 0.2 m/s
37%
23:00
14°
1006.9 hPa
76%
11.5°
1
Windvlaag: 0.3 m/s
24%
 05:09     21:34    Daglengte: 16:25 Dinsdag 03 Aug
00:00
13°
1007.3 hPa
25%
11.3°
1
Windvlaag: 0.2 m/s
20%
01:00
13°
1007.5 hPa
89%
10.8°
1
Windvlaag: 0.8 m/s
17%
02:00
13°
1007.6 hPa
87%
10.6°
1
Windvlaag: 0.8 m/s
27%
03:00
12°
1007.8 hPa
40%
10.7°
1
Windvlaag: 0.6 m/s
34%
04:00
12°
1007.9 hPa
29%
10.7°
1
Windvlaag: 0.7 m/s
42%
05:00
12°
1008.0 hPa
66%
9.8°
1
Windvlaag: 0.6 m/s
46%
06:00
12°
1008.0 hPa
30%
8.9°
1
Windvlaag: 0.7 m/s
62%
07:00
12°
1008.3 hPa
30%
8.5°
1
Windvlaag: 0.6 m/s
69%
08:00
14°
1008.7 hPa
27%
7.9°
1
Windvlaag: 0.7 m/s
51%
09:00
16°
1009.1 hPa
72%
7.1°
1
Windvlaag: -0.7 m/s
54%
10:00
17°
1009.2 hPa
85%
6.5°
1
Windvlaag: -1 m/s
50%
11:00
18°
1009.4 hPa
88%
6.0°
1
Windvlaag: -1.7 m/s
51%
12:00
18°
1009.7 hPa 2.1 mm
95%
5.9°
1
Windvlaag: -2.3 m/s
33%
13:00
19°
1009.7 hPa 2.1 mm
100%
6.4°
1
Windvlaag: -2.2 m/s
25%
14:00
20°
1009.5 hPa 2.1 mm
100%
6.6°
1
Windvlaag: -2.5 m/s
37%
15:00
18°
1009.5 hPa 2.1 mm
100%
5.2°
2
Windvlaag: 2.4 m/s
40%
16:00
18°
1009.5 hPa
100%
6.5°
2
Windvlaag: 2.3 m/s
47%
17:00
17°
1009.8 hPa
100%
10.6°
2
Windvlaag: 5.9 m/s
20%
18:00
17°
1009.6 hPa
90%
11.3°
2
Windvlaag: 5.4 m/s
18%
19:00
17°
1009.7 hPa
37%
10.3°
2
Windvlaag: 4.7 m/s
26%
20:00
17°
1009.9 hPa
29%
10.5°
2
Windvlaag: 4.2 m/s
9%
21:00
15°
1007.7 hPa 6.0 mm
100%
11.7°
2
Windvlaag: 4.3 m/s
43%
22:00
13°
1008.0 hPa 6.0 mm
100%
10.7°
2
Windvlaag: 4.4 m/s
35%
Temp/Neerslag /Baro Onweer/Dauwpunt
    Temp Baro Neerslag Dauwpunt Wind Bewolking  
 05:03     21:41    Daglengte: 16:38 Vandaag
23:00
15°
994.1 hPa   13.3°
3
40%
 05:05     21:38    Daglengte: 16:33 Morgen
02:00
14°
993.4 hPa   13.0°
3
80%
05:00
14°
993.0 hPa   13.0°
3
55%
08:00
16°
993.7 hPa   12.3°
3
62%
11:00
18°
995.4 hPa   10.7°
3
79%
14:00
18°
997.0 hPa 2.0 mm 10.2°
3
37%
17:00
17°
998.1 hPa 3.5 mm 11.6°
2
69%
20:00
16°
998.9 hPa 3.6 mm 9.1°
3
17%
23:00
14°
1000.3 hPa   13.1°
3
56%
 05:07     21:36    Daglengte: 16:29 Maandag 02 Aug
02:00
13°
1000.9 hPa   12.9°
3
77%
05:00
13°
1001.7 hPa 2.0 mm 11.9°
4
80%
08:00
12°
1003.2 hPa   11.1°
4
13%
11:00
15°
1004.4 hPa   13.0°
3
9%
14:00
17°
1004.8 hPa   8.6°
3
21%
17:00
18°
1005.1 hPa   5.9°
3
55%
20:00
17°
1005.7 hPa   7.3°
2
14%
23:00
14°
1006.9 hPa   11.5°
1
24%
 05:09     21:34    Daglengte: 16:25 Dinsdag 03 Aug
02:00
13°
1007.6 hPa   10.6°
1
27%
05:00
12°
1008.0 hPa   9.8°
1
46%
08:00
14°
1008.7 hPa   7.9°
1
51%
11:00
18°
1009.4 hPa   6.0°
1
51%
14:00
20°
1009.5 hPa 6.3 mm 6.6°
1
37%
17:00
17°
1009.8 hPa 2.1 mm 10.6°
2
20%
20:00
17°
1009.9 hPa   10.5°
2
9%
23:00
12°
1008.5 hPa 18.1 mm 10.3°
2
31%
 05:11     21:31    Daglengte: 16:20 Woensdag 04 Aug
02:00
11°
1009.1 hPa 18.1 mm 9.2°
3
22%
05:00
12°
1011.4 hPa 6.5 mm 10.6°
1
0%
08:00
15°
1012.0 hPa 6.5 mm 12.4°
1
0%
11:00
20°
1012.2 hPa 6.5 mm 10.6°
2
0%
14:00
22°
1012.1 hPa 6.7 mm 12.3°
1
0%
17:00
19°
1012.8 hPa 7.4 mm 13.8°
2
1%
20:00
17°
1013.0 hPa 7.7 mm 14.7°
2
0%
23:00
13°
1013.9 hPa 7.7 mm 12.2°
2
0%
 05:14     21:29    Daglengte: 16:15 Donderdag 05 Aug
02:00
12°
1013.8 hPa 7.7 mm 11.3°
1
0%
05:00
11°
1013.5 hPa 7.7 mm 10.4°
2
0%
08:00
15°
1013.4 hPa 7.7 mm 12.6°
2
1%
11:00
19°
1012.9 hPa 7.7 mm 11.5°
2
1%
14:00
21°
1011.8 hPa 7.8 mm 9.0°
3
1%
17:00
20°
1011.2 hPa 7.8 mm 12.6°
2
1%
20:00
18°
1010.7 hPa 7.8 mm 13.1°
1
1%
23:00
14°
1010.6 hPa 7.8 mm 10.8°
2
0%
 05:16     21:26    Daglengte: 16:10 Vrijdag 06 Aug
02:00
16°
1010.1 hPa 7.9 mm 11.5°
3
1%
05:00
13°
1010.1 hPa 7.9 mm 11.7°
3
0%
08:00
16°
1009.5 hPa 7.9 mm 12.7°
4
1%
11:00
19°
1009.0 hPa 7.9 mm 11.6°
5
1%
14:00
19°
1007.9 hPa 7.9 mm 12.0°
2
1%
17:00
21°
1006.6 hPa 7.9 mm 12.7°
1
1%
20:00
18°
1006.0 hPa 8.2 mm 14.5°
2
1%
23:00
17°
1006.8 hPa 8.2 mm 13.1°
3
1%
 05:18     21:24    Daglengte: 16:06 Zaterdag 07 Aug
02:00
14°
1006.6 hPa 8.2 mm 10.2°
4
1%
05:00
13°
1005.8 hPa 8.2 mm 9.8°
4
1%
08:00
16°
1005.4 hPa 8.2 mm 11.0°
5
1%
11:00
19°
1005.2 hPa 8.3 mm 14.1°
5
1%
14:00
16°
1004.5 hPa 10.8 mm 15.0°
4
1%
17:00
16°
1004.3 hPa 14.6 mm 15.4°
4
1%
20:00
16°
1004.5 hPa 31.1 mm 15.3°
4
1%
 05:20     21:21    Daglengte: 16:01 Zondag 08 Aug
02:00
15°
1005.6 hPa 39.0 mm 15.0°
1
1%
08:00
16°
1006.7 hPa 39.6 mm 14.9°
1
1%
14:00
20°
1008.2 hPa 40.6 mm 15.9°
3
1%
20:00
17°
1008.9 hPa 42.0 mm 15.0°
3
1%
 05:23     21:18    Daglengte: 15:55 Maandag 09 Aug
02:00
15°
1007.7 hPa 43.5 mm 14.9°
4
1%
08:00
17°
1007.9 hPa 48.3 mm 15.6°
1
1%
14:00
18°
1008.8 hPa 54.5 mm 15.5°
5
1%
20:00
17°
1010.0 hPa 61.5 mm 14.5°
2
1%
 05:25     21:16    Daglengte: 15:51 Dinsdag 10 Aug
02:00
14°
1011.3 hPa 62.4 mm 13.1°
1
1%
08:00
15°
1012.6 hPa 62.5 mm 13.7°
1
1%
14:00
20°
1013.5 hPa 64.7 mm 15.5°
1
1%
20:00
18°
1012.6 hPa 0.5 mm 13.7°
2
47%
 05:27     21:13    Daglengte: 15:46 Woensdag 11 Aug
02:00
14°
1013.5 hPa 0.9 mm 13.0°
1
53%
08:00
16°
1013.7 hPa 0.8 mm 13.3°
0
61%
14:00
20°
1013.8 hPa 0.8 mm 12.8°
1
63%
20:00
18°
1013.7 hPa 0.6 mm 13.6°
1
52%
 05:29     21:11    Daglengte: 15:42 Donderdag 12 Aug
02:00
15°
1014.8 hPa 0.8 mm 12.5°
0
57%
08:00
16°
1015.1 hPa 0.5 mm 13.1°
0
54%
14:00
21°
1015.2 hPa 0.7 mm 12.9°
1
54%
20:00
19°
1015.3 hPa 0.5 mm 13.8°
1
41%
 05:32     21:08    Daglengte: 15:36 Vrijdag 13 Aug
02:00
15°
1016.2 hPa 0.1 mm 12.5°
0
44%
08:00
16°
1016.3 hPa 0.1 mm 12.5°
1
52%
14:00
22°
1015.8 hPa 0.7 mm 12.4°
1
52%
20:00
19°
1014.9 hPa 0.5 mm 13.8°
1
51%
 05:34     21:05    Daglengte: 15:31 Zaterdag 14 Aug
02:00
15°
1015.3 hPa 0.2 mm 13.0°
1
60%
08:00
17°
1014.6 hPa 0.3 mm 13.3°
1
68%
14:00
21°
1013.7 hPa 0.9 mm 13.4°
2
65%
20:00
18°
1012.8 hPa 0.5 mm 13.1°
2
61%
 05:36     21:03    Daglengte: 15:27 Zondag 15 Aug
02:00
15°
1012.8 hPa 0.3 mm 12.4°
1
53%
08:00
16°
1011.9 hPa 0.5 mm 12.8°
0
58%
14:00
21°
1011.3 hPa 0.7 mm 13.1°
1
63%
20:00
18°
1010.9 hPa 0.4 mm 13.3°
1
59%
  CAPE Lifted Index Hail Supercell Tornado SRH 3km CL BTM PRES CL TOP PRES Swiss DWD icon SMHI TS
 05:03     21:41    Daglengte: 16:38 Vandaag
23:00 0 J/kg -0.1 K 0 % 0 % 0 % 0 m²/s² 0 0 1.46 3
 05:05     21:38    Daglengte: 16:33 Morgen
00:00 0 J/kg -0.1 K 0 % 0 % 0 % 0 m²/s² 0 0 1.52 3
01:00 0 J/kg 0.3 K 0 % 0 % 0 % 0 m²/s² 0 0 2.34 2
02:00 0 J/kg 0.1 K 0 % 0 % 0 % 0 m²/s² 0 0 2.41 3
03:00 1 J/kg -0.8 K 0 % 0 % 0 % 0 m²/s² 0 0 2.53 3
04:00 25 J/kg 0.1 K 0 % 0 % 0 % 0 m²/s² 0 0 4.75 3
05:00 7 J/kg 0.3 K 0 % 0 % 0 % 0 m²/s² 0 0 5.73 3
06:00 9 J/kg 0.0 K 0 % 0 % 0 % 0 m²/s² 0 0 5.01 3
07:00 211 J/kg -1.3 K 0 % 0 % 0 % 0 m²/s² 0 0 3.44 3
08:00 533 J/kg -2.1 K 0 % 0 % 0 % 0 m²/s² 0 0 1.98 80
09:00 614 J/kg -2.2 K 0 % 0 % 0 % 0 m²/s² 0 0 1.28 80
10:00 663 J/kg -2.4 K 0 % 0 % 0 % 0 m²/s² 0 0 0.39 80
11:00 666 J/kg -2.3 K 0 % 0 % 0 % 0 m²/s² 0 0 -0.08 80
12:00 586 J/kg -1.7 K 0 % 0 % 0 % 0 m²/s² 0 0 0.13 80
13:00 609 J/kg -1.9 K 0 % 0 % 0 % 0 m²/s² 0 0 -0.13 80
14:00 375 J/kg -1.2 K 0 % 0 % 0 % 0 m²/s² 0 0 0.45 80
15:00 277 J/kg -0.6 K 0 % 0 % 0 % 0 m²/s² 0 0 0.78 80
16:00 286 J/kg -0.6 K 0 % 0 % 0 % 0 m²/s² 0 0 0.51 80
17:00 270 J/kg -0.7 K 0 % 0 % 0 % 0 m²/s² 0 0 0.53 80
18:00 172 J/kg 0.0 K 0 % 0 % 0 % 0 m²/s² 0 0 1.26 80
19:00 134 J/kg 0.4 K 0 % 0 % 0 % 0 m²/s² 0 0 1.66 80
20:00 104 J/kg 0.2 K 0 % 0 % 0 % 0 m²/s² 0 0 1.58 80
21:00 135 J/kg -0.1 K 0 % 0 % 0 % 0 m²/s² 0 0 1.73 3
22:00 184 J/kg -0.5 K 0 % 0 % 0 % 0 m²/s² 0 0 1.15 2
23:00 180 J/kg -0.5 K 0 % 0 % 0 % 0 m²/s² 0 0 0.55 3
 05:07     21:36    Daglengte: 16:29 Maandag 02 Aug
00:00 107 J/kg -0.5 K 0 % 0 % 0 % 0 m²/s² 0 0 0.01 3
01:00 128 J/kg -0.4 K 0 % 0 % 0 % 0 m²/s² 0 0 -0.1 3
02:00 122 J/kg -0.2 K 0 % 0 % 0 % 0 m²/s² 0 0 0.97 3
03:00 70 J/kg -0.4 K 0 % 0 % 0 % 0 m²/s² 0 0 0.95 3
04:00 0 J/kg 0.2 K 0 % 0 % 0 % 0 m²/s² 0 0 1.55 61
05:00 0 J/kg 1.0 K 0 % 0 % 0 % 0 m²/s² 0 0 1.96 61
06:00 0 J/kg 1.6 K 0 % 0 % 0 % 0 m²/s² 0 0 1.78 61
07:00 0 J/kg 2.0 K 0 % 0 % 0 % 0 m²/s² 0 0 2.18 1
08:00 1 J/kg 2.5 K 0 % 0 % 0 % 0 m²/s² 0 0 2.83 0
09:00 2 J/kg 3.0 K 0 % 0 % 0 % 0 m²/s² 0 0 3.51 1
10:00 4 J/kg 4.1 K 0 % 0 % 0 % 0 m²/s² 0 0 4.4 2
11:00 6 J/kg 4.9 K 0 % 0 % 0 % 0 m²/s² 0 0 5.44 1
12:00 17 J/kg 4.2 K 0 % 0 % 0 % 0 m²/s² 0 0 4.65 1
13:00 24 J/kg 3.8 K 0 % 0 % 0 % 0 m²/s² 0 0 5.45 2
14:00 16 J/kg 3.8 K 0 % 0 % 0 % 0 m²/s² 0 0 7.37 3
15:00 1 J/kg 4.3 K 0 % 0 % 0 % 0 m²/s² 0 0 8.05 2
16:00 3 J/kg 4.1 K 0 % 0 % 0 % 0 m²/s² 0 0 7.64 3
17:00 5 J/kg 3.7 K 0 % 0 % 0 % 0 m²/s² 0 0 7.24 3
18:00 0 J/kg 4.1 K 0 % 0 % 0 % 0 m²/s² 0 0 7.82 2
19:00 0 J/kg 3.9 K 0 % 0 % 0 % 0 m²/s² 0 0 7.83 3
20:00 0 J/kg 3.6 K 0 % 0 % 0 % 0 m²/s² 0 0 7.05 2
21:00 6 J/kg 2.6 K 0 % 0 % 0 % 0 m²/s² 0 0 5.78 3
22:00 46 J/kg 0.5 K 0 % 0 % 0 % 0 m²/s² 0 0 3.53 3
23:00 221 J/kg -0.5 K 0 % 0 % 0 % 0 m²/s² 0 0 1.9 2
 05:09     21:34    Daglengte: 16:25 Dinsdag 03 Aug
00:00 328 J/kg -0.8 K 0 % 0 % 0 % 0 m²/s² 0 0 1.39 3
01:00 308 J/kg -0.8 K 0 % 0 % 0 % 0 m²/s² 0 0 1.39 3
02:00 317 J/kg -0.7 K 0 % 0 % 0 % 0 m²/s² 0 0 1.34 3
03:00 300 J/kg -0.6 K 0 % 0 % 0 % 0 m²/s² 0 0 1.26 3
04:00 209 J/kg 0.0 K 0 % 0 % 0 % 0 m²/s² 0 0 1.44 3
05:00 71 J/kg 1.3 K 0 % 0 % 0 % 0 m²/s² 0 0 2.71 3
06:00 0 J/kg 2.8 K 0 % 0 % 0 % 0 m²/s² 0 0 4.15 3
07:00 0 J/kg 3.8 K 0 % 0 % 0 % 0 m²/s² 0 0 5.3 3
08:00 0 J/kg 4.0 K 0 % 0 % 0 % 0 m²/s² 0 0 5.68 3
09:00 0 J/kg 2.8 K 0 % 0 % 0 % 0 m²/s² 0 0 4.3 2
10:00 0 J/kg 2.1 K 0 % 0 % 0 % 0 m²/s² 0 0 3.54 3
11:00 9 J/kg 1.9 K 0 % 0 % 0 % 0 m²/s² 0 0 2.56 3
12:00 19 J/kg 1.6 K 0 % 0 % 0 % 0 m²/s² 0 0 2.05 80
13:00 24 J/kg 1.6 K 0 % 0 % 0 % 0 m²/s² 0 0 2.26 80
14:00 49 J/kg 1.1 K 0 % 0 % 0 % 0 m²/s² 0 0 2.18 80
15:00 57 J/kg 0.7 K 0 % 0 % 0 % 0 m²/s² 0 0 2.26 80
16:00 96 J/kg 0.1 K 0 % 0 % 0 % 0 m²/s² 0 0 1.66 2
17:00 227 J/kg -0.7 K 0 % 0 % 0 % 0 m²/s² 0 0 0.98 2
18:00 225 J/kg -0.6 K 0 % 0 % 0 % 0 m²/s² 0 0 1.38 2
19:00 152 J/kg -0.2 K 0 % 0 % 0 % 0 m²/s² 0 0 2.11 1
20:00 147 J/kg -0.3 K 0 % 0 % 0 % 0 m²/s² 0 0 2.1 0
21:00 130 J/kg 0.0 K 0 % 0 % 0 % 0 m²/s² 0 0 2.76
22:00 36 J/kg 0.5 K 0 % 0 % 0 % 0 m²/s² 0 0 3.26
Temp Baro Wind Neerslag
  EWN Forecast EWN WRFDA DWD ICON FMI HIRLAM MET Norway GFS
 05:03     21:41    Daglengte: 16:38 Vandaag
23:00 15.2° 994.1 hPa 2.9 m/s 0.0 mm 14.4° 992.7 hPa 4.4 m/s 0.0 mm 14.2° 994.2 hPa 2.4 m/s -2.0 mm 15.4° 994.5 hPa 2.5 m/s 0.0 mm 13.5° 994.0 hPa 2.9 m/s
 05:05     21:38    Daglengte: 16:33 Morgen
02:00 14.2° 993.4 hPa 3.0 m/s 0.0 mm 14.1° 991.3 hPa 4.5 m/s 0.0 mm 13.5° 993.7 hPa 2.3 m/s 0.0 mm 14.0° 993.6 hPa 2.8 m/s 0.0 mm 13.3° 993.6 hPa 2.2 m/s
05:00 14.2° 993.0 hPa 3.1 m/s 0.0 mm 14.2° 990.8 hPa 3.9 m/s 0.0 mm 13.1° 993.8 hPa 2.4 m/s 0.0 mm 14.3° 993.1 hPa 3.0 m/s 0.0 mm 11.8° 993.5 hPa 2.1 m/s
08:00 15.7° 993.7 hPa 2.7 m/s 0.0 mm 17.8° 991.5 hPa 3.8 m/s 0.0 mm 14.8° 993.9 hPa 2.2 m/s 0.5 mm 16.8° 994.4 hPa 2.4 m/s 0.0 mm 14.5° 994.0 hPa 3.2 m/s
11:00 18.1° 995.4 hPa 3.0 m/s 0.0 mm 18.0° 993.1 hPa 3.9 m/s 0.9 mm 16.5° 995.6 hPa 2.3 m/s 1.9 mm 19.6° 996.7 hPa 2.9 m/s 0.0 mm 16.6° 995.3 hPa 2.6 m/s
14:00 17.5° 997.0 hPa 3.3 m/s 2.0 mm 17.2° 994.8 hPa 4.9 m/s 4.0 mm 16.8° 997.2 hPa 3.2 m/s 2.8 mm 19.6° 998.7 hPa 3.4 m/s 0.0 mm 17.1° 996.7 hPa 3.0 m/s
17:00 17.4° 998.1 hPa 2.1 m/s 3.5 mm 18.2° 996.2 hPa 5.9 m/s 8.4 mm 16.6° 998.3 hPa 0.9 m/s 1.4 mm 17.6° 999.9 hPa 2.4 m/s 0.0 mm 17.7° 998.1 hPa 4.0 m/s
20:00 15.7° 998.9 hPa 3.1 m/s 3.6 mm 17.2° 996.7 hPa 4.3 m/s 9.2 mm 15.2° 999.1 hPa 2.9 m/s 1.6 mm 17.7° 1000.4 hPa 0.8 m/s 0.0 mm 14.8° 999.4 hPa 3.6 m/s
23:00 13.9° 1000.3 hPa 3.2 m/s 0.0 mm 13.4° 997.5 hPa 2.2 m/s 9.2 mm 13.1° 1000.5 hPa 3.4 m/s 0.0 mm 14.7° 1001.7 hPa 1.3 m/s 0.0 mm 13.0° 1000.8 hPa 3.3 m/s
 05:07     21:36    Daglengte: 16:29 Maandag 02 Aug
02:00 13.3° 1000.9 hPa 3.2 m/s 0.0 mm 11.4° 997.3 hPa 2.3 m/s 9.3 mm 12.8° 1001.6 hPa 3.4 m/s 0.1 mm 14.4° 1001.3 hPa 1.8 m/s 0.0 mm 13.1° 1001.5 hPa 3.9 m/s
05:00 12.7° 1001.7 hPa 4.2 m/s 2.0 mm 12.6° 998.5 hPa 5.5 m/s 9.5 mm 12.7° 1002.8 hPa 4.2 m/s 0.6 mm 13.5° 1001.9 hPa 2.2 m/s 0.0 mm 12.5° 1002.9 hPa 3.5 m/s
08:00 12.1° 1003.2 hPa 4.0 m/s 0.0 mm 11.2° 1000.6 hPa 6.7 m/s 13.7 mm 12.8° 1004.5 hPa 3.4 m/s 0.1 mm 11.9° 1003.0 hPa 3.5 m/s 0.0 mm 13.7° 1004.5 hPa 3.6 m/s
11:00 14.6° 1004.4 hPa 3.4 m/s 0.0 mm 14.1° 1001.1 hPa 5.8 m/s 16.9 mm 15.2° 1005.5 hPa 2.9 m/s 0.0 mm 11.3° 1004.5 hPa 3.1 m/s 0.0 mm 17.5° 1005.1 hPa 3.0 m/s
14:00 17.3° 1004.8 hPa 2.7 m/s 0.0 mm 17.0° 1001.6 hPa 4.2 m/s 16.9 mm 17.3° 1006.1 hPa 2.7 m/s 0.0 mm 17.1° 1005.0 hPa 2.6 m/s 0.0 mm 19.1° 1005.4 hPa 3.1 m/s
17:00 18.1° 1005.1 hPa 3.0 m/s 0.0 mm 18.8° 1002.1 hPa 3.0 m/s 16.9 mm 17.6° 1006.4 hPa 2.4 m/s 0.0 mm 19.2° 1005.7 hPa 3.2 m/s
20:00 17.2° 1005.7 hPa 1.7 m/s 0.0 mm 18.2° 1002.7 hPa 1.7 m/s 16.9 mm 16.3° 1006.7 hPa 1.5 m/s 0.0 mm 16.3° 1006.1 hPa 2.2 m/s
23:00 14.0° 1006.9 hPa 1.1 m/s 0.0 mm 12.9° 1003.5 hPa 2.3 m/s 16.9 mm 14.0° 1007.6 hPa 0.7 m/s 0.0 mm 11.7° 1006.9 hPa 1.2 m/s
 05:09     21:34    Daglengte: 16:25 Dinsdag 03 Aug
02:00 12.6° 1007.6 hPa 0.9 m/s 0.0 mm 11.8° 1003.9 hPa 1.3 m/s 16.9 mm 13.7° 1008.1 hPa 0.4 m/s 0.0 mm 10.7° 1007.5 hPa 1.3 m/s
05:00 11.6° 1008.0 hPa 1.2 m/s 0.0 mm 10.0° 1004.5 hPa 2.4 m/s 16.9 mm 12.7° 1008.4 hPa 0.3 m/s 0.0 mm 10.8° 1007.9 hPa 1.8 m/s
08:00 14.3° 1008.7 hPa 1.0 m/s 0.0 mm 14.6° 1005.5 hPa 1.9 m/s 16.9 mm 14.5° 1009.1 hPa 0.6 m/s 0.0 mm 13.9° 1008.3 hPa 3.1 m/s
11:00 17.8° 1009.4 hPa 1.1 m/s 0.0 mm 19.4° 1005.9 hPa 0.9 m/s 16.9 mm 16.5° 1009.9 hPa 1.3 m/s 0.1 mm 17.9° 1008.6 hPa 2.6 m/s
14:00 19.5° 1009.5 hPa 1.4 m/s 6.3 mm 20.6° 1006.2 hPa 1.5 m/s 16.9 mm 16.7° 1010.3 hPa 1.5 m/s 1.0 mm 18.1° 1008.7 hPa 1.4 m/s
17:00 17.3° 1009.8 hPa 2.3 m/s 2.1 mm 18.2° 1006.8 hPa 3.7 m/s 17.2 mm 17.1° 1010.5 hPa 2.0 m/s 0.4 mm 17.4° 1009.0 hPa 0.9 m/s
20:00 16.8° 1009.9 hPa 1.6 m/s 0.0 mm 17.7° 1007.1 hPa 2.5 m/s 18.1 mm 16.6° 1010.6 hPa 1.4 m/s 0.0 mm 16.3° 1009.1 hPa 1.1 m/s
23:00 12.3° 1008.5 hPa 2.3 m/s 18.1 mm 12.3° 1008.5 hPa 2.3 m/s 18.1 mm 12.9° 1010.2 hPa 1.1 m/s
 05:11     21:31    Daglengte: 16:20 Woensdag 04 Aug
02:00 11.3° 1009.1 hPa 2.7 m/s 18.1 mm 11.3° 1009.1 hPa 2.7 m/s 18.1 mm 12.2° 1010.8 hPa 1.2 m/s
05:00 11.6° 1011.4 hPa 1.1 m/s 6.5 mm 11.6° 1011.4 hPa 1.1 m/s 6.5 mm
08:00 14.9° 1012.0 hPa 1.2 m/s 6.5 mm 14.9° 1012.0 hPa 1.2 m/s 6.5 mm
11:00 20.2° 1012.2 hPa 1.7 m/s 6.5 mm 20.2° 1012.2 hPa 1.7 m/s 6.5 mm
14:00 22.0° 1012.1 hPa 0.9 m/s 6.7 mm 22.0° 1012.1 hPa 0.9 m/s 6.7 mm
17:00 18.9° 1012.8 hPa 2.3 m/s 7.4 mm 18.9° 1012.8 hPa 2.3 m/s 7.4 mm
20:00 17.0° 1013.0 hPa 2.3 m/s 7.7 mm 17.0° 1013.0 hPa 2.3 m/s 7.7 mm
23:00 13.0° 1013.9 hPa 1.5 m/s 7.7 mm 13.0° 1013.9 hPa 1.5 m/s 7.7 mm
 05:14     21:29    Daglengte: 16:15 Donderdag 05 Aug
02:00 11.9° 1013.8 hPa 1.3 m/s 7.7 mm 11.9° 1013.8 hPa 1.3 m/s 7.7 mm
05:00 10.9° 1013.5 hPa 1.6 m/s 7.7 mm 10.9° 1013.5 hPa 1.6 m/s 7.7 mm
08:00 14.6° 1013.4 hPa 1.7 m/s 7.7 mm 14.6° 1013.4 hPa 1.7 m/s 7.7 mm
11:00 19.1° 1012.9 hPa 2.5 m/s 7.7 mm 19.1° 1012.9 hPa 2.5 m/s 7.7 mm
14:00 21.1° 1011.8 hPa 2.8 m/s 7.8 mm 21.1° 1011.8 hPa 2.8 m/s 7.8 mm
17:00 19.8° 1011.2 hPa 2.3 m/s 7.8 mm 19.8° 1011.2 hPa 2.3 m/s 7.8 mm
20:00 18.3° 1010.7 hPa 0.9 m/s 7.8 mm 18.3° 1010.7 hPa 0.9 m/s 7.8 mm
23:00 14.1° 1010.6 hPa 1.6 m/s 7.8 mm 14.1° 1010.6 hPa 1.6 m/s 7.8 mm
 05:16     21:26    Daglengte: 16:10 Vrijdag 06 Aug
02:00 15.7° 1010.1 hPa 2.6 m/s 7.9 mm 15.7° 1010.1 hPa 2.6 m/s 7.9 mm
05:00 13.0° 1010.1 hPa 3.2 m/s 7.9 mm 13.0° 1010.1 hPa 3.2 m/s 7.9 mm
08:00 15.7° 1009.5 hPa 4.3 m/s 7.9 mm 15.7° 1009.5 hPa 4.3 m/s 7.9 mm
11:00 19.0° 1009.0 hPa 4.7 m/s 7.9 mm 19.0° 1009.0 hPa 4.7 m/s 7.9 mm
14:00 18.8° 1007.9 hPa 2.5 m/s 7.9 mm 18.8° 1007.9 hPa 2.5 m/s 7.9 mm
17:00 20.6° 1006.6 hPa 1.4 m/s 7.9 mm 20.6° 1006.6 hPa 1.4 m/s 7.9 mm
20:00 18.2° 1006.0 hPa 1.6 m/s 8.2 mm 18.2° 1006.0 hPa 1.6 m/s 8.2 mm
23:00 16.5° 1006.8 hPa 3.4 m/s 8.2 mm 16.5° 1006.8 hPa 3.4 m/s 8.2 mm
 05:18     21:24    Daglengte: 16:06 Zaterdag 07 Aug
02:00 13.9° 1006.6 hPa 3.7 m/s 8.2 mm 13.9° 1006.6 hPa 3.7 m/s 8.2 mm
05:00 13.3° 1005.8 hPa 3.9 m/s 8.2 mm 13.3° 1005.8 hPa 3.9 m/s 8.2 mm
08:00 16.2° 1005.4 hPa 4.7 m/s 8.2 mm 16.2° 1005.4 hPa 4.7 m/s 8.2 mm
11:00 18.7° 1005.2 hPa 5.3 m/s 8.3 mm 18.7° 1005.2 hPa 5.3 m/s 8.3 mm
14:00 15.6° 1004.5 hPa 4.1 m/s 10.8 mm 15.6° 1004.5 hPa 4.1 m/s 10.8 mm
17:00 15.9° 1004.3 hPa 4.5 m/s 14.6 mm 15.9° 1004.3 hPa 4.5 m/s 14.6 mm
20:00 15.6° 1004.5 hPa 4.4 m/s 16.5 mm 15.6° 1004.5 hPa 4.4 m/s 16.5 mm
 05:20     21:21    Daglengte: 16:01 Zondag 08 Aug
02:00 15.2° 1005.6 hPa 1.2 m/s 19.7 mm 15.2° 1005.6 hPa 1.2 m/s 19.7 mm
08:00 15.8° 1006.7 hPa 1.1 m/s 19.8 mm 15.8° 1006.7 hPa 1.1 m/s 19.8 mm
14:00 20.4° 1008.2 hPa 2.9 m/s 20.7 mm 20.4° 1008.2 hPa 2.9 m/s 20.7 mm
20:00 17.1° 1008.9 hPa 2.6 m/s 21.0 mm 17.1° 1008.9 hPa 2.6 m/s 21.0 mm
 05:23     21:18    Daglengte: 15:55 Maandag 09 Aug
02:00 15.2° 1007.7 hPa 3.6 m/s 22.2 mm 15.2° 1007.7 hPa 3.6 m/s 22.2 mm
08:00 16.7° 1007.9 hPa 1.5 m/s 24.2 mm 16.7° 1007.9 hPa 1.5 m/s 24.2 mm
14:00 18.2° 1008.8 hPa 4.8 m/s 29.5 mm 18.2° 1008.8 hPa 4.8 m/s 29.5 mm
20:00 16.7° 1010.0 hPa 2.3 m/s 31.1 mm 16.7° 1010.0 hPa 2.3 m/s 31.1 mm
 05:25     21:16    Daglengte: 15:51 Dinsdag 10 Aug
02:00 14.3° 1011.3 hPa 1.1 m/s 31.2 mm 14.3° 1011.3 hPa 1.1 m/s 31.2 mm
08:00 15.5° 1012.6 hPa 0.9 m/s 31.3 mm 15.5° 1012.6 hPa 0.9 m/s 31.3 mm
14:00 19.8° 1013.5 hPa 0.8 m/s 33.3 mm 19.8° 1013.5 hPa 0.8 m/s 33.3 mm
20:00 18.0° 1012.6 hPa 2.1 m/s 0.5 mm
 05:27     21:13    Daglengte: 15:46 Woensdag 11 Aug
02:00 14.4° 1013.5 hPa 1.0 m/s 0.9 mm
08:00 16.0° 1013.7 hPa 0.2 m/s 0.8 mm
14:00 20.5° 1013.8 hPa 1.4 m/s 0.8 mm
20:00 18.1° 1013.7 hPa 1.4 m/s 0.6 mm
 05:29     21:11    Daglengte: 15:42 Donderdag 12 Aug
02:00 14.5° 1014.8 hPa 0.1 m/s 0.8 mm
08:00 16.1° 1015.1 hPa 0.3 m/s 0.5 mm
14:00 21.1° 1015.2 hPa 1.2 m/s 0.7 mm
20:00 18.6° 1015.3 hPa 1.3 m/s 0.5 mm
 05:32     21:08    Daglengte: 15:36 Vrijdag 13 Aug
02:00 14.8° 1016.2 hPa 0.4 m/s 0.1 mm
08:00 16.3° 1016.3 hPa 0.6 m/s 0.1 mm
14:00 22.0° 1015.8 hPa 1.2 m/s 0.7 mm
20:00 18.7° 1014.9 hPa 1.3 m/s 0.5 mm
 05:34     21:05    Daglengte: 15:31 Zaterdag 14 Aug
02:00 15.0° 1015.3 hPa 0.6 m/s 0.2 mm
08:00 16.5° 1014.6 hPa 0.7 m/s 0.3 mm
14:00 21.1° 1013.7 hPa 1.7 m/s 0.9 mm
20:00 18.4° 1012.8 hPa 2.0 m/s 0.5 mm
 05:36     21:03    Daglengte: 15:27 Zondag 15 Aug
02:00 15.1° 1012.8 hPa 1.0 m/s 0.3 mm
08:00 16.2° 1011.9 hPa 0.2 m/s 0.5 mm
14:00 20.8° 1011.3 hPa 1.4 m/s 0.7 mm
20:00 18.1° 1010.9 hPa 1.0 m/s 0.4 mm
FMI Hirlam - 7.5 km EWN WRFDA - 12 km DWD ICON - 7 km GFS - 25 km Basiskaart






























































Updatetijd (Europe/Amsterdam) Resolutie Lengte Stap
FMI Hirlam 19:00, 01:00, 07:00, 13:00 7.5 km 49h 1h
EWN WRFDA 22:15, 04:15, 10:15, 16:15 12 km 73h 1h
DWD ICON 18:15, 00:15, 06:15, 12:15 7 km 75h 1h
GFS 20:15, 02:15, 08:15, 14:15 25 km 237h 3h
30+ mm
25-30 mm
20-25 mm
15-20 mm
10-15 mm
6-10 mm
4-6 mm
2-4 mm
1-2 mm
0.5-1 mm
0.2-0.5 mm
0.1-0.2 mm
30+ mm
25-30 mm
20-25 mm
15-20 mm
10-15 mm
6-10 mm
4-6 mm
2-4 mm
1-2 mm
0.5-1 mm
0.2-0.5 mm
0.1-0.2 mm
Sneeuwval
Natte sneeuw
Hagel
Vorst
30+ mm
25-30 mm
20-25 mm
15-20 mm
10-15 mm
6-10 mm
4-6 mm
2-4 mm
1-2 mm
0.5-1 mm
0.2-0.5 mm
0.1-0.2 mm
Sneeuwval
Natte sneeuw
Hagel
Vorst
Onweer
50 mm
40 mm
30 mm
26 mm
22 mm
18 mm
14 mm
10 mm
9 mm
8 mm
7 mm
6 mm
5 mm
4.5 mm
4 mm
3.5 mm
3 mm
2.5 mm
2 mm
1.5 mm
1 mm
0.8 mm
0.6 mm
0.4 mm
0.2 mm
0.05 mm
35°
30°
25°
20°
15°
10°
-5°
-10°
-15°
-20°
-25°
-30°
-35°
33> m/s
29 m/s
25 m/s
21 m/s
17 m/s
14 m/s
11 m/s
8 m/s
5 m/s
3 m/s
0 m/s
2600 J/kg
2400 J/kg
2200 J/kg
2000 J/kg
1800 J/kg
1600 J/kg
1400 J/kg
1200 J/kg
1000 J/kg
800 J/kg
600 J/kg
400 J/kg
200 J/kg
70 dBZ
65 dBZ
60 dBZ
55 dBZ
50 dBZ
45 dBZ
40 dBZ
35 dBZ
30 dBZ
25 dBZ
20 dBZ
15 dBZ
10 dBZ
5 dBZ
-1 K
-2 K
-3 K
-4 K
-5 K
-6 K
-7 K
-8 K
-9 K
950 m²/s²
900 m²/s²
850 m²/s²
800 m²/s²
750 m²/s²
700 m²/s²
650 m²/s²
600 m²/s²
550 m²/s²
500 m²/s²
450 m²/s²
400 m²/s²
350 m²/s²
300 m²/s²
250 m²/s²
200 m²/s²
150 m²/s²
100 m²/s²
46 m/s
44 m/s
42 m/s
40 m/s
38 m/s
36 m/s
34 m/s
32 m/s
30 m/s
28 m/s
26 m/s
24 m/s
22 m/s
20 m/s
16 m/s
12 m/s
8 m/s
4 m/s
30 m/s
28 m/s
26 m/s
24 m/s
22 m/s
20 m/s
18 m/s
16 m/s
14 m/s
12 m/s
10 m/s
8 m/s
6 m/s
4 m/s
2 m/s
3.0
2.8
2.6
2.4
2.2
2.0
1.8
1.6
1.4
1.2
1.0
0.8
0.6
0.4
0.2
15
14
13
12
11
10
9
8
7
6
5
4
3
2
1
90%
80%
70%
60%
50%
40%
30%
20%
10%
42
40
38
36
34
32
30
28
26
24
22
20
18
16
14
12
90+ cm
80-90 cm
70-80 cm
60-70 cm
50-60 cm
40-50 cm
30-40 cm
20-30 cm
10-20 cm
1-10 cm
Sneeuwval
Natte sneeuw
Regen
>120 mm
115 mm
110 mm
105 mm
100 mm
95